Estació municipal de Susqueda - Veïnat del Coll (La Selva, )

Consulta les dades en temps real de l'estació municipal de Susqueda - Veïnat del Coll





Hora UTC 21:15
Temperatura 8.6 ºC
Humitat 99.4 %
Pressió 1013.4 hPa
Pluja 15.7 mm
Velocitat vent 2.4 km/h
Direcció vent W
Radiació solar 0.1 W/m²

Dades diàries 2026-05-09



Hora UTC (hivern +1h; estiu +2h)
Temperatura (ºC) Humitat (%) Pressió (hPa) Velocitat vent (km/h) Precipitació (mm) Radiació solar (W/m²)
Hora UTC Aire Humitat Pressió Vel. Dir. Vel. Max Dir. Intent. màx 5 min. Rad. Sol.
00:05 8.0 94.8 1015.5 4.7 SW 4.7 W 0.0 0.1
00:10 8.0 94.8 1015.5 3.9 SW 12.7 W 0.0 0.1
00:15 7.9 95.1 1015.5 4.7 SW 9.5 WSW 0.0 0.1
00:20 7.9 95.2 1015.5 3.7 SW 8.8 SW 0.0 0.1
00:25 7.9 95.3 1015.5 4.1 SW 10.2 SSW 0.0 0.1
00:30 7.9 95.3 1015.5 4.4 SSW 10.2 SW 0.0 0.1
00:35 7.9 95.5 1015.5 4.8 SW 11.3 SSW 0.0 0.1
00:40 7.9 95.5 1015.5 4.3 SW 9.9 WSW 0.0 0.1
00:45 7.9 95.5 1015.4 4.7 SW 12.0 S 0.0 0.1
00:50 7.9 96.0 1015.4 6.7 SSW 14.1 SSW 0.0 0.1
00:55 7.9 96.3 1015.4 5.2 SSW 9.9 S 0.0 0.1
01:00 8.0 96.6 1015.4 5.6 SSW 12.7 SSW 0.0 0.1
01:05 8.0 96.8 1015.4 4.5 SW 10.6 SW 0.0 0.1
01:10 8.0 97.0 1015.4 5.4 SSW 12.0 S 0.0 0.1
01:15 8.1 96.8 1015.4 4.4 SW 10.2 SSW 0.0 0.2
01:20 8.1 96.6 1015.4 3.2 SW 10.9 WNW 0.0 0.1
01:25 8.2 96.5 1015.4 3.9 SSW 10.6 SSW 0.0 0.1
01:30 8.3 96.2 1015.4 3.6 SW 11.3 SSE 0.0 0.1
01:35 8.3 95.8 1015.3 3.3 WSW 9.2 W 0.0 0.1
01:40 8.3 95.5 1015.3 2.7 SSW 6.4 SSW 0.0 0.1
01:45 8.3 95.4 1015.3 3.5 SSW 8.8 S 0.0 0.1
01:50 8.2 95.4 1015.3 3.7 SW 8.8 W 0.0 0.1
01:55 8.2 95.4 1015.1 2.9 WSW 7.4 SSW 0.0 0.1
02:00 8.1 95.4 1015.1 2.6 SW 8.1 SSW 0.0 0.1
02:05 8.1 95.5 1015.1 4.5 SSW 8.8 SW 0.0 0.1
02:10 8.1 95.5 1015.1 4.2 SSW 7.4 SW 0.0 0.1
02:15 8.2 95.6 1015.1 4.5 SSW 8.8 SSW 0.0 0.1
02:20 8.2 95.6 1015.1 4.4 SSW 7.8 S 0.0 0.1
02:25 8.1 95.6 1015.0 3.6 SW 7.4 WSW 0.0 0.1
02:30 8.1 95.6 1015.0 4.9 WSW 9.5 WSW 0.0 0.1
02:35 8.1 95.7 1014.8 4.8 SW 9.9 SW 0.0 0.1
02:40 8.0 95.8 1014.8 4.1 SW 10.2 SSW 0.0 0.1
02:45 7.9 95.9 1014.7 3.9 SW 11.3 WSW 0.0 0.1
02:50 7.9 96.1 1014.7 4.2 WSW 8.8 SSW 0.0 0.1
02:55 7.9 96.2 1014.6 3.5 WSW 7.1 W 0.0 0.1
03:00 7.9 96.0 1014.6 3.9 SW 8.8 WNW 0.0 0.1
03:05 7.9 95.7 1014.5 4.4 SW 9.5 SSW 0.0 0.1
03:10 7.9 94.7 1014.5 4.0 SW 11.3 S 0.0 0.1
03:15 8.0 93.4 1014.5 3.5 SW 6.7 WSW 0.0 0.1
03:20 8.1 91.9 1014.5 3.6 SW 8.1 SSW 0.0 0.1
03:25 8.1 90.6 1014.4 3.5 SW 7.1 SW 0.0 0.1
03:30 8.1 89.9 1014.4 3.8 SW 7.4 SSW 0.0 0.1
03:35 8.1 89.9 1014.5 3.5 SW 6.4 SSW 0.0 0.1
03:40 8.1 89.8 1014.5 3.2 SW 6.0 WSW 0.0 0.1
03:45 8.2 89.4 1014.5 3.5 SW 6.7 SSW 0.0 0.1
03:50 8.4 88.1 1014.5 4.6 SSW 6.7 S 0.0 0.1
03:55 8.5 87.1 1014.5 3.6 S 6.4 S 0.0 0.1
04:00 8.5 87.1 1014.5 4.4 S 7.4 SSW 0.0 0.1
04:05 8.6 86.7 1014.5 5.3 S 7.8 S 0.0 0.1
04:10 8.8 85.5 1014.5 5.5 S 9.5 SSE 0.0 0.1
04:15 8.8 85.3 1014.4 4.6 S 7.8 SSE 0.0 0.2
04:20 8.7 85.7 1014.4 5.1 SSE 7.8 SSE 0.0 0.4
04:25 8.7 86.1 1014.4 5.1 SSE 8.1 SSE 0.0 1.6
04:30 8.8 86.0 1014.4 4.8 SSE 8.5 SSE 0.0 2.3
04:35 8.7 86.5 1014.4 5.3 SSE 10.2 SSE 0.0 2.2
04:40 8.6 87.1 1014.4 5.8 SSE 10.9 S 0.0 3.7
04:45 8.6 87.4 1014.5 7.0 S 11.6 SSE 0.0 6.4
04:50 8.6 87.4 1014.5 7.9 S 12.7 SSE 0.0 9.5
04:55 8.7 87.2 1014.6 6.8 S 11.3 S 0.0 13.1
05:00 8.8 86.9 1014.6 6.0 S 8.8 S 0.0 16.1
05:05 9.0 87.0 1014.6 5.6 S 8.5 S 0.0 16.8
05:10 9.1 86.8 1014.6 5.5 S 8.5 S 0.0 19.6
05:15 9.1 86.8 1014.6 4.7 S 6.7 S 0.0 25.2
05:20 9.2 86.1 1014.6 4.6 S 7.8 S 0.0 22.5
05:25 9.4 85.6 1014.6 3.7 S 5.3 SSW 0.0 24.5
05:30 9.5 85.9 1014.6 4.3 S 7.4 S 0.0 22.5
05:35 9.5 87.0 1014.7 3.9 SSE 6.7 S 0.0 25.6
05:40 9.4 88.0 1014.7 5.1 SE 8.5 SE 0.0 28.9
05:45 9.4 87.3 1014.8 5.5 SE 8.1 SE 0.0 42.7
05:50 9.5 88.9 1014.8 4.5 ESE 8.5 SE 0.0 61.2
05:55 9.5 89.0 1014.7 3.7 SE 7.1 SE 0.0 83.5
06:00 9.6 88.9 1014.7 3.0 SE 7.8 SE 0.0 98.3
06:05 9.7 89.3 1014.7 4.1 SE 7.8 SE 0.0 108.6
06:10 9.7 90.6 1014.7 3.1 SE 6.0 SE 0.0 118.5
06:15 9.7 91.3 1014.6 2.4 SSE 4.6 SSE 0.0 130.3
06:20 9.7 90.8 1014.6 3.0 SE 6.0 SE 0.0 146.3
06:25 9.9 90.7 1014.6 4.5 ESE 9.2 SE 0.0 164.3
06:30 10.1 90.3 1014.6 4.7 ESE 8.8 SE 0.0 188.2
06:35 10.3 90.3 1014.7 5.5 ESE 9.9 SE 0.0 194.3
06:40 10.5 90.4 1014.7 5.6 ESE 9.9 ESE 0.0 217.1
06:45 10.8 90.0 1014.7 4.5 ESE 9.5 SE 0.0 244.5
06:50 10.9 89.1 1014.7 5.0 ESE 9.9 ESE 0.0 276.8
06:55 11.1 88.5 1014.6 5.2 ESE 10.2 E 0.0 281.4
07:00 11.1 88.4 1014.6 5.8 ESE 10.2 SE 0.0 272.4
07:05 11.2 87.8 1014.5 6.0 ESE 10.6 E 0.0 275.8
07:10 11.2 87.6 1014.5 5.4 E 10.2 E 0.0 305.9
07:15 11.4 87.3 1014.5 6.2 E 10.9 E 0.0 311.3
07:20 11.5 87.4 1014.5 7.3 ENE 13.4 E 0.0 302.7
07:25 11.4 87.2 1014.4 6.5 E 12.4 ENE 0.0 301.6
07:30 11.2 87.4 1014.4 6.0 E 11.3 E 0.0 310.1
07:35 11.2 87.6 1014.4 7.3 ENE 12.0 ENE 0.0 350.2
07:40 11.4 87.7 1014.4 7.3 E 13.4 ENE 0.0 342.2
07:45 11.6 88.0 1014.4 6.6 E 13.4 E 0.0 315.8
07:50 11.4 87.7 1014.4 7.2 E 13.1 ENE 0.0 232.2
07:55 10.9 89.2 1014.6 8.1 ENE 13.8 NE 0.0 199.7
08:00 10.5 90.3 1014.6 6.9 E 11.6 ESE 0.0 235.6
08:05 10.6 89.6 1014.3 7.2 E 11.3 ENE 0.0 251.2
08:10 10.6 89.2 1014.3 7.6 E 13.1 ENE 0.0 256.9
08:15 10.8 89.6 1014.3 7.6 E 13.1 ENE 0.0 274.2
08:20 10.8 89.9 1014.3 8.3 E 14.8 ENE 0.0 373.4
08:25 11.1 87.8 1014.3 8.1 ENE 15.5 ESE 0.0 330.3
08:30 11.1 87.1 1014.3 9.9 E 19.4 E 0.0 352.5
08:35 11.1 86.5 1014.1 9.0 ENE 18.0 ENE 0.0 405.6
08:40 11.1 84.3 1014.1 9.1 E 16.6 ENE 0.0 351.0
08:45 10.8 84.0 1014.1 10.0 E 20.1 ESE 0.0 279.5
08:50 10.6 85.3 1014.1 9.0 E 18.4 E 0.0 276.8
08:55 10.8 86.4 1014.2 7.3 ENE 15.9 ENE 0.0 293.8
09:00 11.1 86.7 1014.2 6.6 ENE 14.8 ENE 0.0 378.6
09:05 11.2 86.3 1014.3 6.8 ENE 12.4 ENE 0.0 392.6
09:10 11.5 85.2 1014.3 5.3 E 10.9 ENE 0.0 358.4
09:15 11.5 84.7 1014.4 6.4 E 12.7 ESE 0.0 266.5
09:20 11.2 85.9 1014.4 7.3 ENE 17.6 ENE 0.0 340.5
09:25 11.3 86.8 1014.3 7.7 ENE 16.6 NE 0.0 295.6
09:30 11.2 86.0 1014.3 8.3 E 15.5 E 0.0 236.8
09:35 10.9 87.0 1014.4 8.1 E 17.3 ESE 0.0 225.3
09:40 11.0 86.4 1014.4 7.3 E 16.9 E 0.0 295.0
09:45 11.1 84.6 1014.5 6.5 E 16.2 E 0.0 214.2
09:50 10.9 85.5 1014.5 7.4 ESE 15.9 ENE 0.0 165.6
09:55 10.8 87.4 1014.7 5.2 E 12.0 SE 0.0 130.0
10:00 10.6 89.0 1014.7 6.3 E 13.8 E 0.0 113.2
10:05 10.6 90.0 1014.7 6.0 E 12.4 E 0.0 157.5
10:10 10.6 89.3 1014.7 6.4 ESE 14.8 E 0.0 166.2
10:15 10.6 89.9 1014.8 6.8 E 16.2 E 0.0 171.5
10:20 10.6 90.4 1014.8 8.1 E 15.5 ENE 0.0 125.8
10:25 10.5 91.6 1014.8 7.2 E 14.1 E 0.0 138.8
10:30 10.5 91.9 1014.8 6.6 ENE 15.2 E 0.0 97.7
10:35 10.4 92.4 1014.7 7.2 E 12.4 E 0.0 65.1
10:40 10.3 93.3 1014.7 7.1 E 16.2 ESE 0.0 41.1
10:45 10.1 93.9 1014.7 7.6 E 14.1 E 0.0 56.1
10:50 10.2 94.6 1014.7 5.6 E 12.4 E 0.0 97.2
10:55 10.2 94.3 1014.7 7.2 E 14.5 E 0.0 59.8
11:00 10.2 94.9 1014.7 6.9 E 12.0 E 0.0 42.4
11:05 10.2 95.4 1014.7 6.6 E 12.7 E 0.0 115.6
11:10 10.2 95.9 1014.7 5.5 E 10.2 E 0.0 84.1
11:15 10.3 96.0 1014.6 4.9 E 9.5 ESE 0.0 70.2
11:20 10.3 95.7 1014.6 4.6 ESE 9.9 SE 0.0 34.0
11:25 10.2 95.6 1014.7 5.1 E 12.7 ENE 0.0 33.5
11:30 10.0 95.5 1014.7 6.6 E 13.4 E 0.0 35.9
11:35 10.0 96.1 1014.7 5.8 E 13.8 ENE 0.0 17.1
11:40 10.0 96.3 1014.7 6.5 ESE 14.5 ESE 0.0 20.8
11:45 10.0 96.8 1014.7 5.5 ESE 13.1 E 0.0 32.4
11:50 9.9 97.1 1014.7 5.5 E 13.4 E 0.1 27.3
11:55 9.9 97.4 1014.6 5.4 ESE 10.9 SE 0.0 46.3
12:00 10.0 97.6 1014.6 5.1 ESE 10.6 SE 0.0 43.6
12:05 10.0 97.7 1014.6 4.9 ESE 11.6 E 0.0 71.2
12:10 10.0 97.8 1014.6 4.4 ESE 9.9 ENE 0.0 59.2
12:15 10.1 98.0 1014.4 5.3 ESE 10.9 SE 0.0 89.3
12:20 10.1 98.0 1014.4 6.7 ESE 13.4 E 0.0 100.8
12:25 10.2 98.0 1014.2 7.5 E 12.4 ENE 0.0 110.4
12:30 10.1 97.9 1014.2 7.1 E 13.4 E 0.0 48.2
12:35 10.0 98.1 1014.0 6.1 ENE 13.8 NE 0.0 25.8
12:40 9.9 98.0 1014.0 6.7 ENE 12.4 NE 0.1 66.4
12:45 10.0 98.5 1013.6 5.9 ENE 13.8 E 0.0 164.8
12:50 10.1 98.2 1013.6 9.8 E 19.4 ENE 0.0 59.6
12:55 9.8 98.2 1013.6 8.8 E 16.2 ENE 0.0 74.1
13:00 9.7 98.3 1013.6 9.5 E 23.3 E 0.0 69.6
13:05 9.5 98.2 1013.4 11.3 E 20.8 ESE 0.0 82.4
13:10 9.5 98.6 1013.4 8.6 ESE 19.1 E 0.0 70.0
13:15 9.5 98.6 1013.4 11.9 E 22.6 E 0.0 88.6
13:20 9.7 98.9 1013.4 9.5 E 17.3 E 0.0 121.1
13:25 9.7 98.8 1013.4 9.6 E 16.6 E 0.0 128.3
13:30 9.9 98.9 1013.4 8.8 E 16.2 ENE 0.0 192.5
13:35 9.9 98.8 1013.4 6.4 E 10.9 E 0.0 271.0
13:40 9.8 98.7 1013.4 5.9 E 9.9 E 0.0 276.0
13:45 10.0 98.9 1013.5 7.0 E 11.6 E 0.0 240.6
13:50 9.9 98.7 1013.5 6.9 E 12.0 E 0.0 173.5
13:55 10.1 98.9 1013.6 7.0 E 12.0 E 0.0 73.9
14:00 9.9 98.6 1013.6 7.2 E 13.8 ESE 0.0 57.0
14:05 9.9 98.7 1013.7 6.9 E 14.5 E 0.0 56.8
14:10 9.8 98.7 1013.7 8.0 E 14.5 E 0.0 65.3
14:15 9.9 98.8 1013.5 9.5 E 14.5 NE 0.0 77.3
14:20 10.0 99.0 1013.5 6.3 ESE 10.6 ESE 0.0 95.4
14:25 10.1 98.9 1013.5 6.2 ESE 11.6 E 0.0 85.3
14:30 10.1 98.9 1013.5 6.9 ESE 13.1 ESE 0.0 62.8
14:35 10.1 98.8 1013.5 8.1 ESE 15.9 ESE 0.0 34.2
14:40 10.0 98.8 1013.5 8.3 ESE 16.9 E 0.0 27.7
14:45 10.0 98.8 1013.4 7.7 ESE 15.9 ESE 0.0 16.1
14:50 10.0 98.9 1013.4 10.5 E 21.5 ESE 0.0 12.0
14:55 9.9 98.9 1013.2 10.1 E 18.4 E 0.0 8.5
15:00 9.9 98.9 1013.2 8.2 E 16.2 E 0.0 7.9
15:05 10.0 98.9 1012.7 7.8 E 15.5 E 0.0 8.8
15:10 10.0 98.9 1012.7 7.8 E 12.7 ENE 0.0 12.4
15:15 9.9 98.9 1012.3 8.1 E 13.1 ENE 0.0 15.1
15:20 9.9 99.0 1012.3 8.9 E 18.0 E 0.0 19.3
15:25 9.9 99.0 1012.1 11.7 E 20.5 E 0.1 23.4
15:30 9.9 99.1 1012.1 11.9 E 27.2 ENE 0.3 27.0
15:35 9.9 99.1 1011.8 12.3 ENE 29.6 ENE 0.2 30.8
15:40 9.9 99.1 1011.8 9.9 E 20.1 E 0.2 31.8
15:45 9.8 99.1 1011.8 9.0 E 19.1 E 0.1 20.5
15:50 9.8 99.0 1011.8 8.9 ESE 19.8 ESE 0.0 15.3
15:55 9.7 99.1 1012.1 8.3 E 14.5 SE 0.1 11.6
16:00 9.7 99.0 1012.1 6.1 E 12.4 E 0.0 10.6
16:05 9.7 99.1 1012.3 7.2 ESE 20.8 SE 0.1 7.8
16:10 9.6 99.1 1012.3 7.9 ESE 16.6 ESE 0.1 6.6
16:15 9.5 99.0 1012.8 6.7 ESE 14.5 SE 0.2 7.9
16:20 9.4 99.0 1012.8 7.1 ESE 14.5 ESE 0.2 5.7
16:25 9.5 99.1 1013.3 5.4 ESE 10.9 SE 0.6 4.1
16:30 9.4 99.0 1013.3 5.0 ESE 13.1 ESE 0.5 3.7
16:35 9.2 99.0 1013.5 4.3 ESE 10.6 ESE 0.9 5.8
16:40 9.0 98.9 1013.5 1.3 ENE 3.5 E 0.8 7.6
16:45 9.0 99.0 1013.4 1.9 SSW 3.5 SSW 1.0 9.5
16:50 9.0 99.0 1013.4 2.0 E 6.4 ENE 0.7 8.2
16:55 8.9 99.0 1013.2 0.8 E 4.2 E 0.7 7.1
17:00 8.7 99.0 1013.2 1.4 ESE 3.5 ENE 0.7 8.2
17:05 8.7 99.0 1013.0 1.2 ESE 3.9 ENE 0.5 9.4
17:10 8.6 99.0 1013.0 1.0 ESE 3.2 E 0.4 6.8
17:15 8.5 99.0 1012.9 3.4 E 4.9 E 0.4 4.2
17:20 8.5 99.0 1012.9 3.6 E 6.0 E 0.4 3.5
17:25 8.4 99.0 1012.8 4.0 E 6.4 E 0.3 2.8
17:30 8.4 99.1 1012.8 3.0 E 5.6 E 0.6 3.1
17:35 8.4 99.2 1012.5 2.0 E 4.2 E 0.6 3.6
17:40 8.5 99.3 1012.5 1.2 NE 5.6 NE 0.6 3.7
17:45 8.6 99.3 1012.4 0.9 NE 4.2 NE 0.6 4.5
17:50 8.6 99.3 1012.4 1.5 NE 5.3 NNE 0.4 5.0
17:55 8.6 99.2 1012.1 1.9 NNE 8.5 N 0.5 3.6
18:00 8.6 99.3 1012.1 3.5 NE 15.5 NE 0.3 3.5
18:05 8.6 99.3 1011.7 5.5 NE 18.0 ENE 0.3 2.5
18:10 8.6 99.3 1011.7 5.1 NE 18.0 NE 0.2 2.3
18:15 8.6 99.3 1011.4 6.0 NE 15.2 ENE 0.2 3.0
18:20 8.4 99.2 1011.4 5.5 NE 13.1 NE 0.1 1.9
18:25 8.6 99.4 1011.3 6.2 NE 17.3 N 0.1 2.0
18:30 8.6 99.4 1011.3 5.7 NE 19.8 E 0.1 1.4
18:35 8.6 99.4 1011.2 4.4 NE 14.8 NNE 0.1 0.8
18:40 8.7 99.4 1011.2 2.8 NE 17.6 N 0.1 0.7
18:45 8.7 99.4 1011.3 2.9 NNE 12.0 NE 0.1 0.5
18:50 8.7 99.4 1011.3 2.9 NE 14.1 NNE 0.1 0.3
18:55 8.7 99.4 1011.6 4.7 NE 17.3 ENE 0.2 0.2
19:00 8.7 99.4 1011.6 3.9 NNE 15.2 NNE 0.1 0.2
19:05 8.7 99.4 1011.6 2.5 NE 9.2 NNE 0.2 0.2
19:10 8.7 99.4 1011.6 1.5 ENE 6.7 NNE 0.1 0.1
19:15 8.7 99.3 1011.9 3.0 ENE 17.3 NNE 0.1 0.1
19:20 8.6 99.3 1011.9 2.8 NE 6.7 NE 0.0 0.1
19:25 8.6 99.4 1012.2 3.0 NE 7.8 NE 0.1 0.1
19:30 8.5 99.3 1012.2 2.3 NE 9.9 NNE 0.0 0.1
19:35 8.5 99.4 1012.3 3.6 NE 9.9 N 0.0 0.1
19:40 8.5 99.4 1012.3 2.1 NE 7.1 NNE 0.1 0.1
19:45 8.5 99.4 1012.3 0.7 NE 3.5 ENE 0.0 0.1
19:50 8.5 99.4 1012.3 0.3 NW 4.9 WSW 0.0 0.1
19:55 8.5 99.4 1012.4 1.1 WNW 4.6 NNW 0.0 0.1
20:00 8.5 99.4 1012.4 3.2 W 5.6 W 0.0 0.1
20:05 8.5 99.4 1012.6 3.7 W 6.7 W 0.0 0.1
20:10 8.5 99.4 1012.6 1.1 WNW 4.9 WSW 0.0 0.1
20:15 8.5 99.4 1012.8 1.4 W 3.9 WNW 0.0 0.1
20:20 8.5 99.3 1012.8 1.4 W 5.3 NW 0.0 0.1
20:25 8.5 99.4 1013.0 2.6 W 3.9 W 0.0 0.1
20:30 8.5 99.4 1013.0 3.3 W 5.6 NW 0.0 0.1
20:35 8.5 99.4 1013.2 3.4 W 4.9 W 0.0 0.1
20:40 8.5 99.3 1013.2 3.0 W 6.7 WSW 0.0 0.1
20:45 8.5 99.4 1013.3 3.3 W 5.3 WNW 0.0 0.1
20:50 8.5 99.3 1013.3 2.7 W 4.6 W 0.1 0.1
20:55 8.5 99.3 1013.3 2.8 WNW 4.6 W 0.0 0.1
21:00 8.5 99.3 1013.3 2.6 W 4.9 W 0.0 0.1
21:05 8.5 99.4 1013.3 3.1 W 5.6 W 0.0 0.1
21:10 8.5 99.4 1013.3 2.5 W 5.3 WSW 0.0 0.1
21:15 8.6 99.4 1013.4 2.4 W 5.6 SW 0.0 0.1
Màxima 11.6 99.4 1015.5 12.3 ENE 29.6 ENE 1.0 405.6
Mínima 7.9 84.0 1011.2
Total 15.7